Location: Asheville, NC
(35.6000°N, 82.5500°W)
Time: 17:19:56
(UTC-04:00)

Vanguard 2 - Pass Details

Date: 09 February 2018
Orbit: 552 x 2940 km, 32.9° (Epoch: 22 May)

Event Time Altitude Azimuth Distance (km) Brightness Sun altitude
Rises 18:52:29 0° 203° (SSW) 4,400 11.9 -9.9°
Reaches altitude 10° 18:58:33 10° 172° (S) 2,794 10.4 -11.2°
Maximum altitude 19:00:14 11° 157° (SSE) 2,554 10.1 -11.5°
Drops below altitude 10° 19:01:46 10° 141° (SE) 2,480 9.9 -11.8°
Enters shadow 19:03:31 - 124° (ESE) 2,590 9.8 -12.2°
Sets 19:05:58 0° 104° (ESE) 3,047 - -12.6°
